STARLINK-11464, 62473

Orbit data source: Space-Track

STARLINK-11464, 62473 is a payload satellite owned by SpaceX/Seattle (US) in LEO that was launched on Tue, 31 Dec 2024 UTC via an FALCON 9 launch vehicle from the Air Force Eastern Test Range (AFETR). Payload-class satellites include a variety of spacecraft equipped with specific instruments for various scientific and technological missions. These include communications satellites like Starlink; space stations such as the ISS; scientific satellites like the Hubble; Earth observation satellites from companies like Planet Labs, Umbra, and HawkEye 360; GPS; miniature CubeSats for education and research; and military/defense satellites.

Loading next visibility...
Identifier
62473, 2024-254M
Orbit
LEO
Country
Flag of USUS
Related business
Manufacturer
SpaceX/Seattle
Mission
Operational Commercial Communications
Bus & Motor
STARLINK V2MD, Unknown motor
Mass
960 kg wet, ~910 kg dry
Launch date (UTC)
2024-12-31 (1 year ago)
Launch vehicle
FALCON 9
Launch site
Air Force Eastern Test Range (AFETR)
Object type
Payload
Rocket body
Debris
Shape & HBR
Box + 2 Pan, 18.1 m
Radar Cross Section
36.964 m², Large (>1 m²)

Expand to show TLE details & history
Last TLE update: 11 hours ago

TLE from 11 hours ago
0 STARLINK-11464
1 62473U 24254M   26171.46724485  .00125285  00000-0  96103-3 0  9991
2 62473  42.9994 323.6339 0002128 297.1352  62.9299 15.70942900 85616
Epoch: 2026-06-20T11:12Z
TLE epoch observation values (Epoch: 2026-06-20T11:12:49.955Z)
Latitude
0.00003°
Longitude
-113.25566°
Altitude
355.32 km
Speed
7.698 km/s
True Right ascension
21h 34m 32s
True Declination
0° 00' 00"
Sunlit
Object was in full shadow at epoch
Visualization orbit readout
Latitude
Unknown
Longitude
Unknown
Altitude
Unknown
Speed
Unknown
Apparent Right ascension
Unknown
Apparent Declination
Unknown
Sunlit
N/A
Visualization observer readout
Local Sidereal Time
08:43:08
Azimuth
Unknown
Elevation
Unknown
Doppler factor
Unknown
Orbital elements
Apogee altitude
359.616 km
Perigee altitude
356.749 km
Semi-major axis
6,736.32 km
Eccentricity
0.00021
Inclination
42.9994°
RAAN
323.6339°
Arg. of periapsis
297.1352°
True anomaly
62.95162°
Mean anomaly
62.9299°
Eccentric anomaly
62.94076°
Mean motion
3.92563 °/min
Orbital period
91.71 mins
BSTAR
0.00096103
Loading maneuver chart data...
Computing Atmospheric mass density...
Loading historical data...
Loading historical data...
Loading historical data...
Loading historical data...
Loading historical data...
Loading historical data...
Loading historical data...

Documentation

Showing up to 5 results
|